Regional Weather Roundup
Issued by NWS

Home | Current Version | Previous Version | Graphics & Text | Print | Product List | Glossary Off
Versions: 1 2 3 4 5 6 7 8 9 10 11 12 13 14 15 16 17 18 19 20 21 22 23 24 25 26 27 28 29 30 31 32 33 34 35 36 37 38 39 40 41 42 43 44 45 46 47 48 49 50

000
ASUS43 KMPX 021701
RWRMN
WEATHER ROUNDUP FOR MINNESOTA
NATIONAL WEATHER SERVICE TWIN CITIES/CHANHASSEN MN
1200 PM CDT TUE JUN 02 2015


NOTE: "FAIR" INDICATES FEW OR NO CLOUDS BELOW 12,000 FEET WITH NO
SIGNIFICANT WEATHER AND/OR OBSTRUCTIONS TO VISIBILITY. N/A MEANS
CURRENT SKY AND/OR WEATHER CONDITIONS ARE NOT AVAILABLE.

MNZ060>063-068>070-021800-
   Twin Cities Metro

CITY           SKY/WX    TMP DP  RH WIND       PRES   REMARKS
TWIN CITIES    PTSUNNY   71  52  50 S17G23    30.03F
ST PAUL        MOSUNNY   71  54  54 S12G26    30.04S
CRYSTAL        MOSUNNY   73  52  47 S13       30.02S
BLAINE         PTSUNNY   73  55  53 S18G26    30.03S
LAKEVILLE      MOSUNNY   70  54  56 S12G23    30.03S
EDEN PRAIRIE   PTSUNNY   72  54  53 S15       30.02S
SOUTH ST PAUL  MOSUNNY   71  53  52 S13G22    30.03F
LAKE ELMO      FAIR      70  55  60 S14G21    30.06S
$$
MNZ001>005-007-008-013>017-022>024-027-028-021800-
   Northwest Minnesota

CITY           SKY/WX    TMP DP  RH WIND       PRES   REMARKS
BEMIDJI        CLOUDY    66  57  71 S10       29.88F
HALLOCK        CLOUDY    64  59  82 S10       29.83F
ROSEAU         PTSUNNY   70  57  64 S13       29.85S
WARROAD        PTSUNNY   66  59  77 S7        29.85F
THIEF RVR FALL CLOUDY    63  55  77 S9        29.85F
CROOKSTON      CLOUDY    66  59  77 S14G20    29.82F
FOSSTON        CLOUDY    64  57  77 S17G23    29.83F
DETROIT LAKES  CLOUDY    68  54  60 S21G28    29.88F
MOORHEAD       LGT RAIN  64  57  77 SE20G29   29.78F
PARK RAPIDS    CLOUDY    72  53  51 S15       29.92F
MAHNOMEN       FAIR      66  57  71 S18       29.84F
$$
MNZ006-009>011-018-025>026-021800-
   North Central Minnesota

CITY           SKY/WX    TMP DP  RH WIND       PRES   REMARKS
BAUDETTE       CLOUDY    63  52  67 S12       29.88F
FLAG ISLAND    PTSUNNY   57  52  82 SE13      29.85F
INTL FALLS     CLOUDY    56  52  86 S7        29.92F
WASKISH        CLOUDY    59  55  88 SE7       29.89S
BIG FORK       CLOUDY    63  52  67 SE3       29.95S
LONGVILLE      PTSUNNY   72  52  49 SE14G20   29.95F
GRAND RAPIDS   PTSUNNY   70  50  49 S14G22    29.98R
CRANE LAKE     CLOUDY    55  50  82 CALM      29.99S
ORR            CLOUDY    61  45  55 S5        29.95S
COOK           CLOUDY    64  48  55 S7        29.97F
WALKER         FAIR      70  52  52 S15       29.93F
$$
MNZ012-019>021-037-021800-
   Northeast Minnesota

CITY           SKY/WX    TMP DP  RH WIND       PRES   REMARKS
DULUTH         MOSUNNY   68  48  48 S13       30.02F
ELY            CLOUDY    64  43  45 SW9       30.00S
HIBBING        PTSUNNY   69  47  45 S10G17    29.98F
EVELETH        PTSUNNY   68  45  42 S14       29.99F
DULUTH HARBOR  SUNNY     48  43  81 E6        30.05S
TWO HARBORS    MOSUNNY   70  52  52 S10       30.01F
SILVER BAY     PTSUNNY   64  45  48 S5        30.02F
GRAND MARAIS     N/A     48  38  68 NE5       30.07F
G MARAIS ARPRT PTSUNNY   63  37  39 S10G17    30.06F
$$
MNZ029>031-032-039>041-046>048-054>057-064-021800-
   West Central Minnesota

CITY           SKY/WX    TMP DP  RH WIND       PRES   REMARKS
FERGUS FALLS   CLOUDY    68  55  64 S23       29.86F
WHEATON        DRIZZLE   63  55  77 SE14G30   29.86F
MORRIS         CLOUDY    70  55  60 SE21      29.90F
ALEXANDRIA     CLOUDY    70  54  56 S20G29    29.95F
ELBOW LAKE     FAIR      66  55  65 SE23G31   29.87F
WADENA         CLOUDY    70  55  60 S17       29.93F
GLENWOOD       CLOUDY    70  55  60 S16G23    29.97F
APPLETON       CLOUDY    73  54  49 S14       29.91F
BENSON         CLOUDY    70  54  56 S10G20    29.94F
ORTONVILLE     CLOUDY    68  55  64 SE18G25   29.86F
MADISON        CLOUDY    72  55  56 S21       29.91F
WILLMAR        FAIR      72  55  56 S14G20    29.99F
$$
MNZ033>034-036-042>043-049>051-058-059-021800-
   Central Minnesota

CITY           SKY/WX    TMP DP  RH WIND       PRES   REMARKS
ST CLOUD       PTSUNNY   71  54  54 S17G23    30.01R
SAUK CENTRE    FAIR      71  54  55 S15G22    29.98F
PAYNESVILLE    PTSUNNY   67  53  61 SE9       30.00S
AITKIN         PTSUNNY   72  52  49 S12       29.98S
PINE RIVER     PTSUNNY   72  54  53 S17       29.99F
BRAINERD       PTSUNNY   71  53  52 S18G25    29.99S
STAPLES        CLOUDY    70  52  52 S14G20    29.95F
LONG PRAIRIE   FAIR      70  54  56 SE18G24   29.98F
LITTLE FALLS   PTSUNNY   70  52  52 S8G17     29.99F
LITCHFIELD     PTSUNNY   72  54  53 S9G16     30.02R
BUFFALO        PTSUNNY   71  51  48 S12G20    30.03R
MAPLE LAKE     PTSUNNY   73  55  52 S9G17     30.02S
$$
MNZ037-044-045-052-053-021800-
   East Central Minnesota

CITY           SKY/WX    TMP DP  RH WIND       PRES   REMARKS
PRINCETON      MOSUNNY   73  52  46 S12G17    30.02S
MORA           MOSUNNY   70  52  52 S13G18    30.03F
CAMBRIDGE      MOSUNNY   73  54  49 S13G22    30.01S
RUSH CITY      FAIR      69  53  56 S10G20    30.03S
MOOSE LAKE     MOSUNNY   70  50  49 S8        30.00S
HINCKLEY       FAIR      70  54  56 S15G21    30.03S
CLOQUET        MOSUNNY   70  46  43 S13       30.01S
MCGREGOR       PTSUNNY   70  50  49 S13G20    30.00F
$$
MNZ071>073-080-081-089-090-097-098-021800-
   Southwest Minnesota

CITY           SKY/WX    TMP DP  RH WIND       PRES   REMARKS
MONTEVIDEO     CLOUDY    73  55  53 SW12G20   29.95F
GRANITE FALLS  CLOUDY    73  54  50 SE17      29.97S
CANBY          CLOUDY    71  57  60 S12G18    29.92F
MARSHALL       PTSUNNY   75  52  43 S22G29    29.93F
REDWOOD FALLS  PTSUNNY   72  52  49 S17G24    29.97F
OLIVIA         CLOUDY    68  52  56 S10G17    29.98S
PIPESTONE      PTSUNNY   72  55  56 S22G28    29.94F
WINDOM         MOSUNNY   72  52  49 S14G23    30.00R
WORTHINGTON    MOSUNNY   72  54  53 S15G22    29.98F
JACKSON        MOSUNNY   70  54  56 S18G25    30.01F
TRACY          MOSUNNY   73  54  51 S15G24    29.96F
SLAYTON        CLOUDY    71  52  51 S17G25    29.98S
$$
MNZ065>067-074>077-082>085-091>093-021800-
   South Central Minnesota

CITY           SKY/WX    TMP DP  RH WIND       PRES   REMARKS
MANKATO        CLOUDY    70  52  52 S14G24    30.03R
NEW ULM        CLOUDY    70  54  56 S16       30.00F
ST JAMES       PTSUNNY   72  55  56 SE15G25   30.01S
FAIRMONT       PTSUNNY   70  52  52 S20G29    30.02R
GLENCOE        PTSUNNY   72  56  58 S13G21    30.01S
FARIBAULT      PTSUNNY   70  54  56 SE17      30.05S
OWATONNA       PTSUNNY   68  54  60 S17G23    30.05S
WASECA         PTSUNNY   70  52  52 S17G25    30.05S
ALBERT LEA     PTSUNNY   66  54  63 S15G23    30.05S
$$
MNZ078>079-086>088-094>096-021800-
   Southeast Minnesota

CITY           SKY/WX    TMP DP  RH WIND       PRES   REMARKS
ROCHESTER      MOSUNNY   69  54  58 S16G28    30.08F
RED WING       MOSUNNY   72  52  49 S9G17     30.05S
STANTON        MOSUNNY   71  54  54 S13G25    30.03S
DODGE CENTER   MOSUNNY   70  54  56 S16G24    30.06S
WINONA         SUNNY     70  54  56 SE8       30.09F
AUSTIN         PTSUNNY   68  55  64 S14G23    30.06S
PRESTON        MOSUNNY   67  53  61 S12G18    30.09F
$$
ABBREVIATIONS USED IN REMARKS
   TC - TEMPERATURES IN CELSIUS
  WCI - WIND CHILL INDEX
   HX - HEAT INDEX
  VSB - VISIBILITY
$$


USA.gov is the U.S. government's official web portal to all federal, state and local government web resources and services.